# Land Stadt Wetter Temperatur Luftdruck Luftfeuchtigkeit Sichtweite Windgeschwindigkeit Windrichtung Ortszeit
1 ad Andorra la Vella Clear 8 1023 40 10000 7 193 02.08.2018 14:22
2 ae Dubai Clouds 20 1018 49 10000 19 310 02.08.2018 14:21
3 af Kabul Clear -8 1025 69 10000 10 217 02.08.2018 14:21
4 ar Buenos Aires Clouds 24 1011 79 10000 6 290 02.08.2018 14:22
5 ar Esquel Clouds 13 1007 78 10000 16 297 02.08.2018 14:22
6 ar Ushuaia Clouds 10 989 81 10000 9 140 02.08.2018 14:22
7 at Innsbruck Clouds 4 1033 83 10000 9 170 02.08.2018 14:23
8 at Wien Clouds 3 1031 88 2500 5 284 02.08.2018 14:22
9 au Alice Springs Clouds 28 1006 69 10000 13 80 02.08.2018 14:21
10 au Darwin Clouds 25 1007 91 10000 11 270 02.08.2018 14:22
11 au Perth Clear 24 1008 72 10000 24 210 02.08.2018 14:21
12 au Sydney Clouds 19 1014 93 10000 8 290 02.08.2018 14:22
13 bg Sofia Clouds -4 1002 64 8000 26 300 02.08.2018 14:21
14 bg Warna Clouds 1 1020 69 10000 24 320 02.08.2018 14:21
15 bo La Paz Clouds 13 1037 71 10000 9 170 02.08.2018 14:22
16 bo Potisi Clouds 7 1017 72 10000 1 54 02.08.2018 14:22
17 br Manaus Clouds 25 1013 94 10000 7 100 02.08.2018 14:21
18 br Rio de Janeiro Clear 30 1016 59 10000 9 150 02.08.2018 14:22
19 bs Nassau Clouds 24 1017 78 10000 15 320 02.08.2018 14:22
20 ca Montreal Clouds -8 1008 70 10000 6 170 02.08.2018 14:22
21 cd Kisangani Clouds 29 1006 51 10000 2 115 02.08.2018 14:23
22 ch Andermatt Clear 2 1028 60 10000 5 38 02.08.2018 14:23
23 ch Bern Clear 3 1030 74 10000 11 280 02.08.2018 14:23
24 ck Avarua Rain 27 1002 89 5000 33 300 02.08.2018 14:22
25 cl Santiago Clear 21 914 41 10000 0 0 02.08.2018 14:23
26 cn Lhasa Clouds -2 1005 48 10000 9 178 02.08.2018 14:22
27 cn Peking Clouds -2 1030 67 10000 1 287 02.08.2018 14:23
28 cn Shanghai Rain 9 1014 81 10000 2 28 02.08.2018 14:21
29 de Berlin Clouds 6 1023 94 10000 10 298 02.08.2018 14:21
30 de Braunschweig Clouds 6 1027 97 3600 6 0 02.08.2018 14:21
31 de Bremen Clouds 7 1034 94 10000 9 273 02.08.2018 14:22
32 de Dresden Clouds 5 1024 92 10000 13 300 02.08.2018 14:22
33 de Emden Clouds 6 1034 90 10000 8 236 02.08.2018 14:21
34 de Flensburg Clouds 7 1032 87 10000 22 280 02.08.2018 14:21
35 de Frankfurt Clouds 7 1035 72 10000 4 0 02.08.2018 14:22
36 de Freiburg Clouds 6 1031 74 10000 3 102 02.08.2018 14:22
37 de Hamburg Clouds 8 1033 93 10000 24 310 02.08.2018 14:21
38 de Hannover Drizzle 7 943 96 3000 2 248 02.08.2018 14:21
39 de Helgoland Clouds 7 1033 86 10000 19 262 02.08.2018 14:22
40 de Hiddensee Clouds 7 1031 93 10000 15 276 02.08.2018 14:21
41 de Kassel Clouds 6 1034 87 10000 13 310 02.08.2018 14:21
42 de Köln Clouds 6 1029 81 9000 2 54 02.08.2018 14:21
43 de Magdeburg Clouds 7 1029 89 10000 6 306 02.08.2018 14:22
44 de München Clouds 3 1034 87 10000 5 37 02.08.2018 14:21
45 de Nürnberg Clouds 4 1034 84 10000 7 10 02.08.2018 14:21
46 de Oberstdorf Clouds 2 1032 85 10000 6 41 02.08.2018 14:21
47 de Stuttgart Clouds 5 1033 81 10000 7 50 02.08.2018 14:22
48 de Torfhaus Clouds 2 1035 92 8871 5 296 02.08.2018 14:22
49 de Trier Clouds 5 1034 75 10000 10 80 02.08.2018 14:21
50 do Santo Domingo Clouds 25 1017 83 10000 5 97 02.08.2018 14:21
51 ec San Cristobal Clouds 24 1010 88 10000 24 140 02.08.2018 14:22
52 eg Kairo Clouds 16 1017 54 10000 20 290 02.08.2018 14:22
53 es Barcelona Clouds 12 1027 64 10000 3 188 02.08.2018 14:22
54 es Las Palmas de Gran Canaria Clouds 20 1020 68 10000 8 99 02.08.2018 14:21
55 es Madrid Clouds 9 1012 63 10000 6 113 02.08.2018 14:23
56 es Palma de Mallorca Clouds 13 1027 56 10000 3 208 02.08.2018 14:22
57 es Sevilla Clear 17 1021 54 10000 10 79 02.08.2018 14:22
58 es Tarifa Clouds 15 1022 77 10000 41 92 02.08.2018 14:21
59 et Addis Abeba Clouds 18 1014 33 10000 18 122 02.08.2018 14:23
60 fi Helsinki Mist 1 1022 87 3500 5 239 02.08.2018 14:21
61 fi Rovaniemi Clear 1 1005 100 10000 26 230 02.08.2018 14:21
62 fj Suva Clouds 25 1006 94 10000 4 0 02.08.2018 14:21
63 fr Bordeaux Clear 10 1027 60 10000 9 60 02.08.2018 14:21
64 fr Nizza Clouds 13 1027 70 10000 7 180 02.08.2018 14:22
65 fr Paris Clouds 4 1033 86 10000 3 68 02.08.2018 14:22
66 gb Glasgow Clouds 7 1029 78 10000 22 220 02.08.2018 14:21
67 gb London Clouds 6 1035 76 10000 2 119 02.08.2018 14:22
68 gb Manchester Clouds 5 1032 84 10000 3 337 02.08.2018 14:21
69 gl Nuuk Clouds -8 1007 84 10000 12 136 02.08.2018 14:22
70 gr Athen Clouds 5 1020 48 10000 10 90 02.08.2018 14:22
71 id Jakarta Clouds 28 1009 72 6000 7 220 02.08.2018 14:22
72 ie Dublin Clouds 7 1031 76 10000 10 234 02.08.2018 14:21
73 in Jagatsukh Clouds 3 1013 98 104 7 222 02.08.2018 14:22
74 in Mumbai Smoke 21 1013 56 2500 13 330 02.08.2018 14:22
75 in Nagpur Haze 20 1011 42 4000 9 310 02.08.2018 14:21
76 iq Bagdad Clear 13 1018 33 10000 13 110 02.08.2018 14:22
77 is Reykjavik Snow -1 992 80 9000 50 250 02.08.2018 14:22
78 it Mailand Mist 7 1029 73 4000 3 186 02.08.2018 14:21
79 it Palermo Clear 12 1028 44 10000 16 44 02.08.2018 14:22
80 it Rom Clear 13 1028 51 10000 3 240 02.08.2018 14:23
81 jp Nagasaki Clouds 9 1014 100 10000 17 20 02.08.2018 14:21
82 jp Tokio Rain 6 1014 62 10000 7 350 02.08.2018 14:22
83 ke Nairobi Clouds 25 1017 41 10000 19 60 02.08.2018 14:22
84 kr Seoul Clear -2 1021 72 6000 4 330 02.08.2018 14:21
85 ma Casablanca Clear 22 1019 64 6000 21 320 02.08.2018 14:23
86 ma Marrakesch Clouds 23 1019 33 8000 13 330 02.08.2018 14:23
87 mg Antananarivo Rain 21 1013 78 10000 30 100 02.08.2018 14:21
88 mn Ulaanbaatar Clouds -18 1018 78 8000 4 0 02.08.2018 14:23
89 mn Uliastai Clouds -25 1047 97 3385 9 77 02.08.2018 14:23
90 mv Male Clouds 29 1009 74 10000 9 350 02.08.2018 14:23
91 mx Mexiko Stadt Clouds 10 1013 80 10000 3 79 02.08.2018 14:21
92 mx Veracruz Clouds 19 1021 82 10000 9 340 02.08.2018 14:21
93 no Hammerfest Rain 2 989 80 10000 26 210 02.08.2018 14:22
94 no Oslo Clouds 0 999 61 10000 1 228 02.08.2018 14:23
95 nz Wellington Haze 15 1014 87 3500 2 260 02.08.2018 14:23
96 pe Cusco Clouds 13 1031 62 10000 7 80 02.08.2018 14:23
97 pg Port Moresby Clouds 25 1008 85 10000 6 25 02.08.2018 14:21
98 ph Manila Clouds 27 1009 73 10000 10 107 02.08.2018 14:21
99 pt Lissabon Clear 14 1018 57 10000 17 50 02.08.2018 14:22
100 qa Doha Clear 18 1019 34 10000 11 310 02.08.2018 14:23
101 ru Amderma Clouds -14 1018 90 4438 37 207 02.08.2018 14:23
102 ru Anadyr Snow -26 997 75 9000 10 10 02.08.2018 14:23
103 ru Jakutsk Snow -27 1024 75 10000 6 10 02.08.2018 14:22
104 ru Moskau Clouds -4 1032 99 6519 4 44 02.08.2018 14:22
105 ru Surgut Snow -12 1033 85 10000 4 230 02.08.2018 14:23
106 ru Werchojansk Clouds -35 1026 100 5226 2 199 02.08.2018 14:22
107 sa Riad Clear 18 1017 23 10000 15 124 02.08.2018 14:21
108 sb Honiara Clouds 27 1009 85 10000 6 245 02.08.2018 14:22
109 se Stockholm Clear 1 1022 88 10000 9 250 02.08.2018 14:23
110 th Bangkok Clear 28 1009 58 10000 17 178 02.08.2018 14:21
111 tr Alanya Clouds 11 1015 56 10000 34 250 02.08.2018 14:22
112 tr Ankara Snow -2 1009 66 10000 17 310 02.08.2018 14:23
113 tr Istanbul Clouds 0 1020 74 10000 39 350 02.08.2018 14:23
114 ua Kiew Clouds -4 1024 73 10000 21 10 02.08.2018 14:21
115 us Chicago Snow -8 1012 86 8047 18 13 02.08.2018 14:23
116 us Death Valley Clear 13 1026 32 10000 11 355 02.08.2018 14:22
117 us Denver Clouds -2 1026 65 10000 9 213 02.08.2018 14:21
118 us Fairbanks Clouds -14 1007 86 10000 0 0 02.08.2018 14:23
119 us Honolulu Clear 22 1017 77 10000 5 102 02.08.2018 14:22
120 us Las Vegas Clear 7 1025 37 10000 2 229 02.08.2018 14:21
121 us Los Angeles Clear 13 1021 40 10000 0 0 02.08.2018 14:22
122 us Miami Clouds 15 1018 91 10000 11 300 02.08.2018 14:23
123 us New York Clouds -3 1015 49 10000 2 182 02.08.2018 14:22
124 us Nome Clouds -22 1008 99 10000 10 61 02.08.2018 14:23
125 us Tucson Clear 8 1018 66 10000 8 121 02.08.2018 14:21
126 uy Montevideo Clouds 25 1010 88 10000 13 120 02.08.2018 14:22
127 vn Hanoi Clear 22 1011 93 10000 11 140 02.08.2018 14:21
128 za Kapstadt Clear 30 1013 59 10000 17 140 02.08.2018 14:22